Tracking 19638 objects as of 21-Apr-2019
HD Live streaming from Space Station
objects crossing your sky now

NANOSAT(1)

Track NANOSAT(1) now!
10-day predictions
NANOSAT(1) is classified as:


NORAD ID: 28493
Int'l Code: 2004-049B
Perigee: 653.6 km
Apogee: 660.6 km
Inclination: 98.1 °
Period: 97.7 minutes
Semi major axis: 7028 km
RCS: 0.2736 m2 (medium)
Launch date: December 18, 2004
Source: Spain (SPN)
Launch site: FRENCH GUIANA (FRGUI)

Will maintain contact with Spanish zone in Antarctica; extremely small magnetic and solar sensors.
aabbcc
Your satellite tracking list
Your tracking list is empty




NASA's NSSDC Master Catalog

Two Line Element Set (TLE):
1 28493U 04049B   19111.23013831  .00000072  00000-0  18989-4 0  9995
2 28493  98.1367 195.2038 0005015  32.3841 327.7674 14.73492942770030
Source of the keplerian elements: AFSPC